Regional Weather Roundup
Issued by NWS Midland/Odessa, TX

Skip options and go directly to product.
Home | Oldest Version | Previous Version | Current Version | All | Text Only | Save Text | Print | Product List | Glossary Off

Skip product version selection by date and time.   

848
ASUS44 KMAF 030810
RWRMAF
MIDLAND AREA WEATHER ROUNDUP
NATIONAL WEATHER SERVICE MIDLAND TX
200 AM CST TUE MAR 03 2015

...IN SOUTHWEST TEXAS AND SOUTHEAST NEW MEXICO...

CITY           SKY/WX    TMP DP  RH WIND       PRES   REMARKS
ALPINE         MOCLDY    49  37  61 SW6       30.03F
ANDREWS        FOG       38  38 100 S8        29.96F VSB 1/2 WCI  32
ARTESIA        MOCLDY    37  37 100 S15       29.93F WCI  28
BIG SPRING     CLOUDY   N/A N/A N/A SE7       30.01F
CARLSBAD       CLOUDY    38  36  92 S15G23    29.93F FOG     WCI  29
DRYDEN           N/A     45  43  93 CALM      30.02F
FORT STOCKTON  PTCLDY    38  37  97 SE5       29.96F WCI  34
GUAD PASS      NOT AVBL
HOBBS          FOG       37  37 100 S8        29.95F VSB 3/4 WCI  31
MARFA          MOCLDY    41  36  81 NW7       30.02F WCI  36
MIDLAND AIRPK  FOG       40  40 100 S7        29.98F VSB 1   WCI  35
MIDLAND INTL   FOG       39  38  96 SE8       29.97F VSB 1/2 WCI  33
ODESSA         FOG       40  38  93 S9        29.97F VSB 1/2 WCI  34
PECOS          MOCLDY    38  36  91 CALM      29.99F
PRESIDIO       FAIR      56  39  52 NE6       29.95F
SEMINOLE       FOG       37  37 100 SW6       29.98F VSB 1/2 WCI  32
SNYDER         FOG       36  36  99 S8        30.01F VSB 3/4 WCI  30
WINK           CLOUDY    41  36  82 S5        29.98F WCI  38
$$
...OTHER STATIONS IN TEXAS...

CITY           SKY/WX    TMP DP  RH WIND       PRES   REMARKS
ABILENE        CLOUDY    38  37  97 S7        30.05F FOG     WCI  33
AMARILLO       MOCLDY    34  32  92 S24G36    29.84F FOG     WCI  21
AUSTIN         FOG       41  41 100 E6        30.09F VSB 1/2 WCI  37
BROWNSVILLE    FOG       56  55  97 N3        30.06F VSB 1/2
CORPUS CHRISTI DRZL/FOG  54  53  97 NE8       30.07F VSB 1/2
DALLAS FTW     DRZL/FOG  40  40 100 W7        30.11R VSB<1/4 WCI  35
DEL RIO        CLOUDY    48  47  96 E8        30.06F
EL PASO        CLOUDY    57  44  62 SW9       29.92F
HOUSTON INT    FOG       56  56 100 E3        30.11F VSB 1/8
LUBBOCK        CLOUDY    35  35 100 S16       29.93F FOG     WCI  25
SAN ANGELO     FOG       39  38  96 CALM      30.05F VSB 1/2
SAN ANTONIO    DRZL/FOG  45  44  97 E5        30.08F VSB 1/8
WACO           FOG       40  40 100 CALM      30.09F VSB 1/2
WICHITA FALLS  NOT AVBL
$$
...OTHER LOCATIONS IN NEW MEXICO...

CITY           SKY/WX    TMP DP  RH WIND       PRES   REMARKS
ALAMAGORDO     CLOUDY    57  45  62 S16       29.93F
ALBUQUERQUE    CLOUDY    42  33  70 NE3       29.97F
CANNON AFB     MOCLDY    32  32  99 SW5       29.89S WCI  27
CLOVIS         PTCLDY    34  32  93 S12       29.90R WCI  25
HOLLOMAN AFB   MOCLDY    55  46  72 SW8       29.90F
ROSWELL        MOCLDY    37  34  89 S18G24    29.92F WCI  27
RUIDOSO        MOCLDY    46  37  71 SW16G26   29.96F WCI  40
SANTA FE       CLOUDY    36  30  79 S3        29.94F
TRUTH OR CONSE MOCLDY    51  41  68 S8        29.90F
TUCUMCARI      MOCLDY    37  33  85 W17       29.85R WCI  27
$$

USA.gov is the U.S. government's official web portal to all federal, state and local government web resources and services.